EHI
1 1 0 0 0 0 0 0 0 0 0 0 0 0 0 0 0 0 0 0 0 0 0 0 0 0 0 0 0 0 0 0 0 0 0 0 0 0 0 0 0 0 0
2 2 1 0 0 0 0 0 0 0 0 0 0 0 0 0 0 0 0 0 0 0 0 0 0 0 0 0 0 0 0 0 0 0 0 0 0 0 0 0 0 0 0
3 2 1 0 0 0 0 0 0 0 0 0 0 0 0 0 0 0 0 0 0 0 0 0 0 0 0 0 0 0 0 0 0 0 0 0 0 0 0 0 0 0 0
1 2 1 0 0 0 0 0 0 0 0 0 0 0 0 0 0 0 0 0 0 0 0 0 0 0 0 0 0 0 0 0 0 0 0 0 0 0 0 0 0 0 0
0 1 1 0 0 0 0 0 0 0 0 0 0 0 0 0 0 0 0 0 0 0 0 0 0 0 0 0 0 0 0 0 0 0 0 0 0 0 0 0 0 0 0
0 0 0 0 0 0 0 0 0 0 0 0 0 0 0 0 0 0 0 0 0 0 0 0 0 0 0 0 0 0 0 0 0 0 0 0 0 0 0 0 0 0 0
1 1 0 0 0 0 0 0 0 0 0 0 0 0 0 0 0 0 0 0 0 0 0 0 0 0 0 0 0 0 0 0 0 0 0 0 0 0 0 0 0 0 0
0 0 0 0 0 0 0 0 0 0 0 0 0 0 0 0 0 0 0 0 0 0 0 0 0 0 0 0 0 0 0 0 0 0 0 0 0 0 0 0 0 0 0
0 0 0 0 0 0 0 0 0 0 0 0 0 0 0 0 0 0 0 0 0 0 0 0 0 0 0 0 0 0 0 0 0 0 0 0 0 0 0 0 0 0 0
0 0 0 0 0 0 0 0 0 0 0 0 0 0 0 0 0 0 0 0 0 0 0 0 0 0 0 0 0 0 0 0 0 0 0 0 0 0 0 0 0 0 0
0 0 0 0 0 0 0 0 0 0 0 0 0 0 0 0 0 0 0 0 0 0 0 0 0 0 0 0 0 0 0 0 0 0 0 0 0 0 0 0 0 0 0
0 0 0 0 0 0 0 0 0 0 0 0 0 0 0 0 0 0 0 0 0 0 0 0 0 0 0 0 0 0 0 0 0 0 0 0 0 0 0 0 0 0 0
0 0 0 0 0 0 0 0 0 0 0 0 0 0 0 0 0 0 0 0 0 0 0 0 0 0 0 0 0 0 0 0 0 0 0 0 0 0 0 0 0 0 0
0 0 0 0 0 0 0 0 0 0 0 0 0 0 0 0 0 0 0 0 0 0 0 0 0 0 0 0 0 0 0 0 0 0 0 0 0 0 0 0 0 0 0
0 0 0 0 0 0 0 0 0 0 0 0 0 0 0 0 0 0 0 0 0 0 0 0 0 0 0 0 0 0 0 0 0 0 0 0 0 0 0 0 0 0 0
0 0 0 0 0 0 0 0 0 0 0 0 0 0 0 0 0 0 0 0 0 0 0 0 0 0 0 0 0 0 0 0 0 0 0 0 0 0 0 0 0 0 0
0 0 0 0 0 0 0 0 0 0 0 0 0 0 0 0 0 0 0 0 0 0 0 0 0 0 0 0 0 0 0 0 0 0 0 0 0 0 0 0 0 0 0
0 0 0 0 0 0 0 0 0 0 0 0 0 0 0 0 0 0 0 0 0 0 0 0 0 0 0 0 0 0 0 0 0 0 0 0 0 0 0 0 0 0 0
0 0 0 0 0 0 0 0 0 0 0 0 0 0 0 0 0 0 0 0 0 0 0 0 0 0 0 0 0 0 0 0 0 0 0 0 0 0 0 0 0 0 0
0 0 0 0 0 0 0 0 0 0 0 0 0 0 0 0 0 0 0 0 0 0 0 0 0 0 0 0 0 0 0 0 0 0 0 0 0 0 0 0 0 0 0
0 0 0 0 0 0 0 0 0 0 0 0 0 0 0 0 0 0 0 0 0 0 0 0 0 0 0 0 0 0 0 0 0 0 0 0 0 0 0 0 0 0 0
0 0 0 0 0 0 0 0 0 0 0 0 0 0 0 0 0 0 0 0 0 0 0 0 0 0 0 0 0 0 0 0 0 0 0 0 0 0 0 0 0 0 0
0 0 0 0 0 0 0 0 0 0 0 0 0 0 0 0 0 0 0 0 0 0 0 0 0 0 0 0 0 0 0 0 0 0 0 0 0 0 0 0 0 0 0
0 0 0 0 0 0 0 0 0 0 0 0 0 0 0 0 0 0 0 0 0 0 0 0 0 0 0 0 0 0 0 0 0 0 0 0 0 0 0 0 0 0 0
0 0 0 0 0 0 0 0 0 0 0 0 0 0 0 0 0 0 0 0 0 0 0 0 0 0 0 0 0 0 0 0 0 0 0 0 0 0 0 0 0 0 0
0 0 0 0 0 0 0 0 0 0 0 0 0 0 0 0 0 0 0 0 0 0 0 0 0 0 0 0 0 0 0 0 0 0 0 0 0 0 0 0 0 0 0
Wind_Speed
2 2 2 2 2 2 3 3 2 2 2 1 1 1 1 1 1 1 1 1 2 1 1 1 2 2 2 4 5 4 4 5 5 5 5 4 5 5 5 5 5 5 6
2 2 2 2 2 2 2 3 3 2 2 1 1 1 1 2 2 1 1 1 1 2 1 1 2 2 2 2 4 5 5 5 5 5 5 4 4 4 4 5 5 5 5
2 2 2 2 2 3 3 2 3 2 1 1 2 2 2 2 2 2 1 1 1 1 2 2 2 2 2 1 3 4 5 5 4 5 5 4 4 4 4 5 5 4 4
2 2 2 2 2 2 2 2 2 2 2 2 2 2 2 2 3 2 2 2 1 1 1 2 2 2 2 2 2 4 4 5 5 5 4 4 4 4 4 5 5 4 4
2 2 2 2 2 2 2 2 2 2 2 2 2 2 2 3 3 2 3 2 2 2 2 1 1 2 3 3 2 3 5 5 5 5 5 4 4 4 4 5 5 4 4
2 2 2 2 2 1 2 2 3 3 2 2 3 3 3 3 3 3 3 2 2 3 3 2 2 2 3 3 3 3 4 5 5 5 5 5 5 4 4 5 5 5 5
2 2 2 2 2 2 2 2 3 3 2 2 2 2 2 3 3 2 2 2 2 2 2 2 2 2 2 2 3 3 4 5 6 6 6 6 6 6 6 5 6 6 6
2 2 3 2 2 2 2 2 2 2 1 1 2 2 2 2 2 2 2 2 2 2 2 3 3 2 2 2 1 2 2 4 5 6 6 7 7 7 7 7 6 7 6
3 2 3 3 3 3 2 2 2 3 2 2 1 2 2 2 2 2 3 3 3 3 3 3 3 3 3 3 3 2 2 3 5 6 6 7 8 8 8 7 8 7 8
3 3 3 3 3 3 3 3 3 3 3 3 2 3 3 3 3 2 3 3 4 4 4 3 3 3 3 3 3 2 2 3 4 5 6 7 8 8 8 8 7 8 7
3 3 3 3 4 3 3 3 3 4 4 4 3 3 4 4 5 4 4 3 3 3 3 4 4 3 4 4 3 3 3 4 5 6 6 6 7 8 8 8 8 7 7
3 4 4 4 4 4 4 4 4 5 4 5 4 4 4 4 4 4 5 5 4 3 4 4 4 3 3 4 4 2 3 4 5 5 6 6 7 7 8 9 8 8 7
3 4 4 4 4 4 5 5 5 5 6 6 5 5 5 5 5 5 5 5 6 4 4 4 4 3 3 4 4 3 5 5 6 6 6 7 7 6 6 8 9 9 8
4 5 5 5 5 5 5 5 5 6 5 6 6 6 5 5 5 5 5 5 5 4 4 5 3 4 4 4 4 5 5 6 6 6 7 7 6 6 6 7 7 8 8
4 5 5 6 6 6 6 5 5 5 5 5 5 6 6 5 5 5 5 5 5 5 6 5 3 4 3 4 4 6 6 6 7 7 8 8 7 6 6 7 6 6 7
5 5 5 6 6 6 6 6 5 5 5 5 5 6 6 5 5 5 5 6 6 6 7 4 4 5 5 5 6 7 7 8 9 9 8 9 8 7 7 7 7 7 7
5 6 6 6 6 6 6 6 6 6 6 6 6 7 7 7 6 5 6 6 6 6 8 7 5 5 7 7 6 6 7 7 7 9 9 10 9 8 7 7 7 8 7
5 6 6 6 6 6 6 7 7 7 7 7 7 7 8 6 7 6 6 7 7 7 8 8 6 5 7 8 7 7 6 6 7 8 10 10 9 8 8 8 8 8 8
6 6 6 6 6 6 7 7 8 7 7 8 8 8 8 8 8 7 8 7 6 6 7 7 7 6 6 6 6 6 7 6 6 6 9 9 9 9 9 9 9 9 9
6 6 6 7 7 7 7 7 7 8 7 8 8 8 8 8 8 8 8 8 7 7 7 7 7 6 5 6 5 5 5 6 5 5 6 7 8 10 10 10 10 10 10
6 6 7 7 7 6 6 7 7 8 8 8 8 8 8 9 11 10 8 7 7 7 7 7 7 6 6 5 5 5 6 6 6 5 5 5 6 6 7 9 10 10 11
7 7 7 7 7 6 8 10 9 8 8 8 8 8 9 9 11 12 13 13 12 10 9 8 8 8 8 7 6 6 6 6 6 4 5 6 6 7 6 7 9 10 11
7 7 7 7 8 8 10 11 12 9 8 8 9 8 7 7 10 9 10 12 13 14 15 11 11 10 9 8 8 8 8 8 7 5 5 7 6 7 6 6 9 11 11
7 7 7 8 8 9 11 12 12 10 9 9 9 9 9 9 8 9 9 9 10 10 11 10 10 11 10 9 9 9 9 8 8 6 7 7 6 7 6 6 8 10 10
7 7 7 8 8 9 11 12 12 8 8 9 9 9 9 9 11 12 10 10 10 9 10 12 13 13 13 13 10 7 7 7 7 6 5 6 5 5 6 6 6 8 9
7 7 8 8 9 9 11 12 12 7 8 8 8 8 11 11 12 12 9 9 10 9 8 8 9 10 10 10 11 10 8 7 6 6 5 5 5 3 4 4 5 5 6
Wind_Direction
6 357 350 357 355 357 354 337 327 321 315 321 312 302 292 272 263 244 144 38 333 290 212 175 165 177 183 185 178 166 153 143 141 137 132 129 132 126 118 118 128 125 119
360 344 342 347 344 343 340 329 320 304 301 302 288 283 271 261 251 249 235 170 313 308 279 223 197 206 189 189 187 175 162 157 159 157 151 144 144 143 137 136 127 125 130
345 335 334 334 333 326 329 326 325 303 292 294 283 279 271 261 253 242 245 248 222 258 290 258 227 209 199 186 193 181 178 168 167 167 169 167 161 160 154 151 143 134 127
334 323 324 323 323 319 322 325 320 313 297 282 277 269 265 259 247 240 238 245 257 256 250 269 253 230 213 201 213 201 188 184 180 178 177 180 182 176 175 167 162 156 148
329 315 315 316 311 312 318 315 313 299 296 291 281 268 256 249 246 234 233 240 247 257 256 232 237 250 245 228 231 225 207 199 194 193 189 185 188 193 193 185 175 173 171
326 318 309 310 303 299 313 312 310 302 296 297 280 273 260 247 246 233 235 237 244 253 254 249 227 223 241 240 236 242 223 214 206 204 203 198 197 201 200 201 194 191 192
319 315 315 300 290 284 291 296 300 291 307 317 290 287 264 236 233 226 229 237 243 249 251 250 244 236 224 230 236 245 244 232 223 215 216 207 206 210 213 210 208 205 206
309 303 316 303 285 275 270 281 299 294 299 321 311 288 270 224 214 233 239 243 250 252 250 253 246 235 241 233 233 249 255 251 243 227 228 222 215 216 219 222 221 218 214
309 305 300 297 286 280 269 270 269 278 272 266 274 272 275 266 297 233 237 239 248 250 256 251 247 236 240 244 233 223 249 256 250 243 236 236 225 221 219 222 227 227 224
300 297 294 296 285 278 279 270 258 265 255 252 253 259 275 287 267 271 236 238 254 253 256 251 244 239 234 242 250 260 250 252 250 251 241 243 235 226 225 227 230 229 229
294 290 287 292 287 275 274 275 271 265 251 248 249 256 256 260 259 257 264 256 256 249 251 253 242 243 235 237 241 245 249 247 251 252 248 256 245 232 229 231 233 233 232
296 295 289 281 282 277 268 268 266 264 254 248 249 248 249 247 253 262 265 269 264 257 254 249 245 238 236 235 240 265 250 250 258 260 257 265 253 241 237 234 235 235 236
294 297 298 286 281 278 274 264 259 260 253 250 249 247 248 250 256 264 265 272 273 270 249 242 240 237 241 241 242 250 246 252 261 263 263 270 257 250 253 243 239 237 238
288 294 290 290 290 285 277 269 264 256 251 250 252 253 253 252 253 254 260 265 271 263 247 245 241 238 246 246 256 245 244 251 258 263 263 266 264 259 260 253 248 244 240
284 285 285 286 288 288 285 277 265 261 259 256 255 256 256 254 253 256 257 254 254 261 253 245 246 240 252 255 260 249 248 250 257 260 261 264 261 258 258 256 251 249 244
285 283 283 283 283 283 284 277 265 258 256 256 255 254 255 255 253 251 250 252 250 256 262 257 259 267 266 269 260 251 249 249 248 252 257 259 256 253 255 249 246 245 245
286 284 281 279 280 280 279 277 270 262 258 258 255 253 254 255 256 254 251 249 248 250 259 269 265 268 260 263 267 255 252 245 244 246 248 253 249 248 251 246 242 241 244
283 281 280 276 276 277 277 273 271 266 258 257 256 255 255 254 254 256 253 250 250 248 255 266 268 263 262 261 263 261 258 251 251 242 242 246 245 245 245 245 240 239 240
290 282 280 277 275 275 274 272 269 267 263 259 257 255 255 254 254 255 253 250 253 254 252 257 266 265 268 264 264 263 258 249 257 243 236 237 243 245 243 240 238 237 237
291 287 280 278 275 274 270 269 269 267 265 265 259 256 255 252 254 257 254 251 252 255 254 253 260 260 263 265 260 261 265 251 250 248 241 243 243 242 239 236 236 237 237
290 288 284 280 276 272 266 270 271 268 267 267 264 257 255 258 258 257 255 253 252 253 255 254 257 256 253 255 254 256 261 264 252 242 245 242 241 238 235 235 234 234 236
293 289 286 283 279 274 276 278 277 272 270 267 266 264 258 258 260 261 259 259 256 253 253 254 256 252 253 254 255 253 259 259 255 231 241 247 240 242 240 236 235 236 236
293 289 285 282 281 281 281 281 281 279 273 269 267 266 264 262 263 259 261 261 259 257 255 255 257 258 258 252 250 251 252 258 259 255 239 245 238 243 244 244 240 234 233
290 287 285 284 281 281 285 283 282 279 273 269 268 266 265 265 262 263 262 262 261 258 257 257 259 263 263 262 252 249 253 259 268 258 235 243 242 245 247 246 236 231 232
287 285 285 284 281 283 284 284 283 278 269 268 267 267 266 265 266 267 264 261 262 262 261 260 265 268 270 268 259 246 240 242 255 258 244 244 243 252 252 243 228 226 232
286 287 284 282 281 281 284 285 284 275 271 269 267 264 264 266 268 267 263 262 261 265 267 266 266 269 267 264 258 246 240 237 247 254 237 237 239 238 254 239 230 229 233